[[{"header":{"parameterUnit":"m.s-1","parameterCategory":1,"la1":30.2991,"la2":30.254,"lo1":-89.0895,"lo2":-89.0444,"dy":0.0017,"dx":0.0017,"nx":28,"ny":28,"refTime":"2024-04-07T03:00:00:Z","depth":0,"parameterNumber":2,"parameterNumberName":"U-component_of_WINDS"},"data":[0,0,0,0,0,0,0,0,0,0,0,0,0,0,0,0,0,0,0,0,0,0,0,0,0,0,0,0,0,0,0,0,0,0,0,0,0,0,0,0,0,0,0,0,0,0,0,0,0,0,0,0,0,0,0,0,0,0,-5.3438,-5.3439,0,-5.352,-5.3521,-5.3522,-5.3517,-5.3515,-5.3514,-5.3513,-5.3593,-5.3596,-5.36,0,0,0,0,0,0,0,0,0,0,0,0,0,-5.3274,-5.3277,-5.3438,-5.3439,-5.344,-5.352,-5.3521,-5.3522,-5.3517,-5.3515,-5.3514,-5.3512,-5.3592,-5.3596,-5.36,0,0,0,0,0,0,0,0,0,0,0,0,0,-5.3349,-5.3278,-5.3437,-5.3447,-5.3448,-5.352,-5.3521,-5.3522,-5.3517,-5.3515,-5.3513,-5.3512,-5.3591,-5.3596,-5.36,-5.3666,0,0,-5.3615,-5.3617,0,0,0,0,0,0,0,0,-5.3345,-5.3355,-5.3444,-5.3446,-5.3448,-5.3506,-5.3493,-5.357,-5.3517,-5.3491,-5.3513,-5.3511,-5.3565,-5.3572,-5.3592,-5.367,-5.3673,-5.3616,-5.3619,-5.3621,-5.3622,0,0,0,0,0,0,0,-5.334,-5.3352,-5.347,-5.3446,-5.3448,-5.3446,-5.3455,-5.3507,-5.3537,-5.3493,-5.3493,-5.3503,-5.3566,-5.3587,-5.3593,-5.3675,-5.3616,-5.362,-5.3623,-5.3625,-5.3812,-5.3814,0,0,0,0,0,0,-5.3333,-5.3347,-5.3467,-5.3472,-5.3391,-5.3451,-5.346,-5.3489,-5.3536,-5.3542,-5.3504,-5.3502,-5.3579,-5.3588,-5.3596,-5.3676,-5.3621,-5.3625,-5.3628,-5.381,-5.3813,-5.3815,0,0,0,0,0,0,-5.3329,-5.3344,-5.3464,-5.341,-5.3425,-5.3455,-5.3488,-5.3492,-5.3512,-5.3545,-5.355,-5.352,-5.3578,-5.3589,-5.3649,-5.3678,-5.3627,-5.3632,-5.3808,-5.3811,-5.3814,-5.3836,0,0,0,0,0,0,-5.3325,-5.3343,-5.3368,-5.3411,-5.3428,-5.3516,-5.349,-5.3495,-5.3521,-5.352,-5.3561,-5.3566,-5.3578,-5.3642,-5.3654,-5.3684,-5.3636,-5.3805,-5.3809,-5.3813,-5.3832,-5.3839,-5.3845,0,0,0,0,0,-5.3319,-5.337,-5.3369,-5.3384,-5.3461,-5.3518,-5.3528,-5.3541,-5.3524,-5.3549,-5.3571,-5.3565,-5.3675,-5.3648,-5.3662,-5.3694,-5.3803,-5.3808,-5.3813,-5.383,-5.3838,-5.3845,0,0,0,0,0,0,-5.3327,-5.3375,-5.3375,-5.3442,-5.3476,-5.3517,-5.3549,-5.3549,-5.3588,-5.3584,-5.3598,-5.3608,-5.3668,-5.3688,-5.3658,-5.3761,-5.3736,-5.3744,-5.3745,-5.3753,-5.3759,-5.3751,-5.364,0,0,0,0,0,-5.3337,-5.3381,-5.342,-5.3475,-5.3492,-5.3518,-5.3544,-5.3551,-5.3587,-5.3601,-5.3626,-5.366,-5.3702,-5.3729,-5.377,-5.3837,-5.3845,-5.3866,-5.3872,-5.3877,-5.3882,-5.3919,-5.3928,-5.383,-5.383,-5.383,0,0,-5.3357,-5.3389,-5.3415,-5.3477,-5.3505,-5.3549,-5.353,-5.3577,-5.3609,-5.3607,-5.3665,-5.3686,-5.3725,-5.3789,-5.3818,-5.3807,-5.3912,-5.3883,-5.3887,-5.3889,-5.3925,-5.3934,-5.3942,-5.3833,-5.3833,-5.3832,0,0,-5.3415,-5.3445,-5.3493,-5.3522,-5.3565,-5.3583,-5.3595,-5.3637,-5.3651,-5.371,-5.371,-5.3749,-5.3821,-5.3849,-5.3872,-5.3946,-5.3941,-5.3959,-5.399,-5.4026,-5.4033,-5.404,-5.4065,-5.4073,-5.3965,-5.3965,-5.3965,0,-5.3433,-5.35,-5.3518,-5.3566,-5.3593,-5.3597,-5.3646,-5.3673,-5.3726,-5.3744,-5.3732,-5.3824,-5.385,-5.3921,-5.3939,-5.3959,-5.3972,-5.3952,-5.4031,-5.4038,-5.4045,-5.4068,-5.4078,-5.3966,-5.3966,-5.3966,-5.3966,0,-5.3521,-5.3567,-5.3602,-5.3655,-5.3687,-5.3735,-5.3759,-5.3789,-5.3796,-5.3815,-5.3875,-5.3908,-5.3956,-5.3974,-5.398,-5.4046,-5.4037,-5.4028,-5.4003,-5.4055,-5.4078,-5.4087,-5.3969,-5.3968,-5.3968,-5.3967,0,0,-5.3581,-5.3647,-5.3659,-5.3684,-5.3733,-5.3769,-5.3819,-5.3867,-5.3892,-5.393,-5.397,-5.4034,-5.4026,-5.4053,-5.4063,-5.4095,-5.4149,-5.4082,-5.4083,-5.4091,-5.4223,-5.4227,-5.4237,-5.4149,-5.4151,-5.4152,-5.4219,0,-5.3642,-5.373,-5.3749,-5.3824,-5.3867,-5.3874,-5.3916,-5.3951,-5.3971,-5.401,-5.4033,-5.4076,-5.4064,-5.408,-5.4113,-5.4136,-5.4175,-5.4132,-5.4185,-5.4186,-5.4171,-5.4249,-5.4253,-5.4314,-5.4228,-5.4229,-5.423,0,-5.3724,-5.3766,-5.3846,-5.3892,-5.3911,-5.3949,-5.3995,-5.4033,-5.4074,-5.4086,-5.4118,-5.4126,-5.4177,-5.4153,-5.4223,-5.4193,-5.4217,-5.4232,-5.4235,-5.4237,-5.4209,-5.4251,-5.4334,-5.4342,-5.4245,-5.4244,-5.4243,0,-5.3758,-5.3835,-5.3893,-5.3914,-5.3969,-5.3996,-5.402,-5.4059,-5.4087,-5.4128,-5.4147,-5.4193,-5.4218,-5.4253,-5.4273,-5.4254,-5.4341,-5.4319,-5.4351,-5.4351,-5.4365,-5.4363,-5.4451,-5.4386,-5.4386,-5.4386,-5.4386,0,-5.3822,-5.387,-5.3909,-5.3944,-5.3998,-5.4021,-5.4074,-5.4097,-5.4133,-5.4172,-5.4182,-5.4218,-5.4244,-5.4284,-5.43,-5.4355,-5.4367,-5.4377,-5.438,-5.4374,-5.4373,-5.4387,-5.4382,-5.4388,-5.4388,-5.4387,-5.4387,0,-5.3866,-5.3895,-5.3958,-5.4007,-5.402,-5.4058,-5.4099,-5.4133,-5.4156,-5.4206,-5.4219,-5.4253,-5.4301,-5.4326,-5.4385,-5.4396,-5.4458,-5.446,-5.4444,-5.4444,-5.4474,-5.447,-5.4571,-5.4585,-5.4514,-5.4514,-5.4515,0,-5.3904,-5.3941,-5.3995,-5.4023,-5.4048,-5.4093,-5.4123,-5.4148,-5.4178,-5.4229,-5.4257,-5.4307,-5.4347,-5.4424,-5.4454,-5.45,-5.4501,-5.4534,-5.4508,-5.4501,-5.4499,-5.4495,-5.4498,-5.4536,-5.4537,-5.4538,-5.4538,0,-5.3967,-5.398,-5.4023,-5.4072,-5.4108,-5.4148,-5.4186,-5.4209,-5.424,-5.4274,-5.4324,-5.4356,-5.4419,-5.4467,-5.4516,-5.454,-5.4544,-5.4547,-5.4556,-5.4549,-5.4537,-5.4542,-5.4453,-5.4543,-5.4543,-5.4542,-5.4542,-5.4542,-5.4007,-5.4041,-5.4085,-5.4133,-5.4166,-5.4202,-5.4237,-5.4265,-5.4308,-5.4362,-5.4375,-5.4428,-5.4469,-5.4536,-5.4562,-5.4604,-5.4596,-5.461,-5.4613,-5.4616,-5.4616,-5.4534,-5.4613,-5.4613,-5.4613,-5.4613,-5.4613,0,-5.4068,-5.4098,-5.4143,-5.4198,-5.4236,-5.424,-5.4284,-5.4315,-5.4362,-5.4402,-5.4442,-5.4501,-5.4549,-5.4584,-5.4633,-5.466,-5.4663,-5.4671,-5.4668,-5.4673,-5.4621,-5.4606,-5.4668,-5.4668,-5.4668,-5.4668,-5.4668,-5.4668,-5.4104,-5.4162,-5.4181,-5.4255,-5.4284,-5.4337,-5.4362,-5.4396,-5.4427,-5.4493,-5.4533,-5.4557,-5.4595,-5.4647,-5.4691,-5.47,-5.4717,-5.4725,-5.4734,-5.4683,-5.4677,-5.4671,-5.4658,-5.4729,-5.4729,-5.4782,-5.4783,-5.4783]},{"header":{"parameterUnit":"m.s-1","parameterCategory":1,"la1":30.2991,"la2":30.254,"lo1":-89.0895,"lo2":-89.0444,"dy":0.0017,"dx":0.0017,"nx":28,"ny":28,"refTime":"2024-04-07T03:00:00:Z","depth":0,"parameterNumber":3,"parameterNumberName":"V-component_of_WINDS"},"data":[0,0,0,0,0,0,0,0,0,0,0,0,0,0,0,0,0,0,0,0,0,0,0,0,0,0,0,0,0,0,0,0,0,0,0,0,0,0,0,0,0,0,0,0,0,0,0,0,0,0,0,0,0,0,0,0,0,0,3.2783,3.2784,0,3.283,3.2831,3.2831,3.2909,3.2911,3.2912,3.2913,3.2959,3.2958,3.2958,0,0,0,0,0,0,0,0,0,0,0,0,0,3.2761,3.2761,3.2783,3.2784,3.2784,3.283,3.2831,3.2831,3.2909,3.2911,3.2912,3.2914,3.2959,3.2958,3.2958,0,0,0,0,0,0,0,0,0,0,0,0,0,3.2785,3.276,3.2783,3.2829,3.2833,3.283,3.2831,3.2832,3.2908,3.2911,3.2913,3.2915,3.2959,3.2958,3.2958,3.2913,0,0,3.2958,3.2957,0,0,0,0,0,0,0,0,3.2784,3.2786,3.2821,3.2826,3.2831,3.2866,3.2839,3.2859,3.2908,3.288,3.2913,3.2916,3.2926,3.2928,3.2932,3.2916,3.2918,3.2958,3.2957,3.2957,3.2957,0,0,0,0,0,0,0,3.2782,3.2784,3.2802,3.2822,3.2827,3.2847,3.2853,3.2843,3.289,3.2882,3.2888,3.2893,3.2929,3.2932,3.2934,3.2918,3.2958,3.2957,3.2957,3.2957,3.287,3.2868,0,0,0,0,0,0,3.2774,3.2782,3.28,3.2803,3.2812,3.2845,3.2852,3.2852,3.289,3.2898,3.2891,3.2896,3.2932,3.2934,3.2936,3.2888,3.2957,3.2957,3.2957,3.2872,3.2869,3.2867,0,0,0,0,0,0,3.2773,3.2774,3.2798,3.2794,3.2799,3.2843,3.2843,3.2852,3.2856,3.2897,3.2905,3.2886,3.2934,3.2936,3.2919,3.2891,3.2957,3.2957,3.2875,3.2871,3.2868,3.279,0,0,0,0,0,0,3.2772,3.2774,3.2757,3.2793,3.2799,3.2781,3.2842,3.2852,3.2856,3.2863,3.2895,3.2902,3.2935,3.2919,3.2919,3.2891,3.2957,3.2877,3.2873,3.2869,3.2796,3.2785,3.2775,0,0,0,0,0,3.2771,3.2732,3.2756,3.2757,3.2779,3.2779,3.2782,3.2822,3.2853,3.2837,3.2864,3.2901,3.2894,3.2917,3.2917,3.2889,3.2879,3.2874,3.287,3.28,3.2787,3.2776,0,0,0,0,0,0,3.2689,3.2737,3.2764,3.2736,3.2753,3.2792,3.2773,3.2807,3.2814,3.2821,3.287,3.2876,3.2853,3.287,3.2894,3.2849,3.2893,3.2887,3.2839,3.2827,3.2817,3.2814,3.2956,0,0,0,0,0,3.2668,3.2665,3.2707,3.2678,3.2686,3.2728,3.2729,3.2759,3.2778,3.2785,3.2811,3.2827,3.2829,3.2829,3.2833,3.2798,3.2807,3.2779,3.2769,3.2761,3.2756,3.2741,3.273,3.2851,3.2851,3.2851,0,0,3.2625,3.2651,3.2645,3.2663,3.2679,3.2675,3.2733,3.2725,3.2722,3.2784,3.277,3.2789,3.2811,3.2786,3.2776,3.2799,3.2725,3.2755,3.2748,3.2747,3.2735,3.2724,3.2713,3.2848,3.2848,3.2849,0,0,3.2543,3.2561,3.2541,3.2557,3.2582,3.2611,3.2606,3.264,3.2656,3.2643,3.269,3.2687,3.2689,3.2703,3.2711,3.2637,3.2672,3.2637,3.2584,3.2569,3.256,3.2552,3.2527,3.2517,3.2632,3.2632,3.2632,0,3.2485,3.2481,3.2526,3.2516,3.2523,3.258,3.256,3.2573,3.2597,3.2601,3.2626,3.2631,3.265,3.263,3.2612,3.2616,3.2613,3.2634,3.2558,3.255,3.2543,3.252,3.251,3.2627,3.2628,3.2628,3.2629,0,3.2409,3.2405,3.2386,3.241,3.2415,3.2399,3.2443,3.2442,3.2472,3.2498,3.2485,3.251,3.2521,3.2518,3.2546,3.2503,3.2517,3.2549,3.2593,3.2526,3.2506,3.2497,3.2621,3.2623,3.2624,3.2625,0,0,3.2276,3.2328,3.232,3.2333,3.2365,3.2363,3.2351,3.2364,3.2363,3.2378,3.237,3.2371,3.2402,3.2411,3.2441,3.2428,3.2371,3.2463,3.2464,3.2446,3.2326,3.2302,3.2291,3.2394,3.2393,3.2391,3.2325,0,3.2202,3.2186,3.2227,3.22,3.2198,3.2253,3.2243,3.2262,3.2287,3.2289,3.2316,3.2317,3.2357,3.2363,3.2352,3.238,3.2347,3.2385,3.2387,3.2387,3.2381,3.228,3.2254,3.219,3.2317,3.2315,3.2314,0,3.2113,3.2126,3.2099,3.2137,3.2137,3.2127,3.2143,3.2144,3.2167,3.2186,3.2197,3.2234,3.2225,3.2268,3.2257,3.2282,3.2285,3.2299,3.2298,3.23,3.2347,3.228,3.217,3.2161,3.2302,3.2303,3.2304,0,3.2021,3.2031,3.2018,3.2027,3.2069,3.2061,3.2078,3.2104,3.2109,3.2123,3.2127,3.2138,3.2145,3.2153,3.2192,3.2219,3.2177,3.2223,3.2193,3.2192,3.2182,3.2182,3.2072,3.2183,3.2183,3.2183,3.2183,0,3.1934,3.1916,3.1977,3.1969,3.195,3.1998,3.1979,3.2002,3.2024,3.2022,3.2069,3.2065,3.2117,3.2119,3.2149,3.2137,3.2139,3.2154,3.2163,3.215,3.2149,3.2154,3.216,3.218,3.2181,3.2181,3.2182,0,3.1828,3.1868,3.1857,3.1899,3.1909,3.1894,3.193,3.1924,3.1952,3.1948,3.195,3.1994,3.1999,3.2039,3.2052,3.2073,3.2049,3.2066,3.2041,3.2047,3.2016,3.2019,3.1906,3.1894,3.2011,3.2009,3.2009,0,3.1771,3.1759,3.18,3.1802,3.1818,3.182,3.1826,3.1873,3.1878,3.1905,3.1896,3.1906,3.1916,3.1921,3.1954,3.1965,3.1983,3.1943,3.1985,3.1974,3.1984,3.1985,3.1984,3.1933,3.1932,3.1931,3.193,0,3.1665,3.1686,3.1694,3.171,3.1716,3.173,3.1747,3.1746,3.1798,3.1801,3.1808,3.1816,3.1831,3.184,3.1857,3.1874,3.1911,3.1916,3.191,3.1898,3.1885,3.1893,3.2018,3.1919,3.192,3.1921,3.1921,3.1922,3.1583,3.1575,3.1604,3.1612,3.163,3.1645,3.1643,3.1672,3.1678,3.1695,3.1722,3.1725,3.1751,3.1778,3.1793,3.1796,3.1817,3.1808,3.1806,3.1803,3.1797,3.1884,3.1799,3.1799,3.18,3.18,3.18,0,3.1481,3.1503,3.151,3.1533,3.1539,3.1574,3.1596,3.1598,3.1601,3.1622,3.1632,3.164,3.165,3.1684,3.1697,3.1693,3.1711,3.1695,3.1697,3.17,3.1777,3.1781,3.1681,3.1681,3.1681,3.1681,3.1682,3.1682,3.1429,3.1419,3.1444,3.1444,3.1466,3.147,3.1479,3.1494,3.1512,3.1519,3.1528,3.1551,3.1578,3.1594,3.1605,3.1615,3.1618,3.1597,3.1612,3.1683,3.1695,3.1706,3.171,3.1597,3.1597,3.1536,3.1535,3.1535]}]]